Retour au catalogue

CZ-6A R/B

ActifPO
NORAD 68661·ROCKET BODY·🇨🇳 China

Lancé Apr 8, 2026 depuis Taiyuan Satellite Launch Center

Loading…

Prochains Passages (prochaines 24 heures)

TLE

FraisSource: Space-Track

Époque: Sep 14, 2026, 14:42 UTC

1 68661U 26076F   26257.61313975  .00000143  00000-0  68453-4 0  9993
2 68661  86.5142   6.6339 0104161 334.4306  25.1743 14.09409090 22370

Suivez CZ-6A R/B en temps réel avec AllMySat

Download on the App Store